{"data":{"norad_id":64747,"intl_designator":"2025-144Z","name":"STARLINK-34589","alt_names":[],"object_type":"PAYLOAD","status":"ACTIVE","operator":null,"country":"US","launch_date":"2025-07-02","launch_site_code":"AFETR","launch_vehicle":null,"mission":null,"orbit_class":"UNKNOWN","rcs_meters":null,"size_class":null,"mass_kg":null,"dimensions":null,"purposes":["comms"],"wikipedia_slug":null,"has_3d_model":false,"image_url":null,"decayed_at":null,"tle_current":{"epoch":"2026-05-24T11:51:35.498304Z","epoch_age_seconds":122241,"freshness":"FRESH","line1":"1 64747U 25144Z   26144.49416086  .00017196  00000+0  59132-3 0  9995","line2":"2 64747  53.1589 176.3904 0001076  83.3342 276.7781 15.30203524 51490","mean_motion":15.30203524,"eccentricity":0.0001076,"inclination_deg":53.1589,"raan_deg":176.3904,"arg_perigee_deg":83.3342,"mean_anomaly_deg":276.7781,"bstar":0.00059132,"rev_number":5149,"period_min":94.105128985443,"perigee_km":474.46712786022,"apogee_km":475.94196696122,"semimajor_km":6853.3415474107,"source":"CELESTRAK","updated_at":"2026-05-25T13:38:20.550504Z"}}}